Location: Okie-Tex Star Party
(36.8978°N, 102.9520°W)
Time: 07:08:49
(UTC-05:00)

Oscar 16 - Visible Passes

Search period start: 28 August 2016 00:00
Search period end: 07 September 2016 00:00
Orbit: 776 x 790 km, 98.6° (Epoch: 27 August)

Date Brightness Start Highest point End Pass type
(mag) Time Alt. Az. Time Alt. Az. Time Alt. Az.
28 Aug 12.8 03:20:54 10° NNE 03:22:49 23° NNE 03:22:49 23° NNE visible
28 Aug 12.9 05:02:15 10° NNW 05:03:23 12° NW 05:03:23 12° NW visible
29 Aug 13.3 02:49:42 10° NNE 02:50:43 15° NE 02:50:43 15° NE visible
29 Aug 12.6 04:29:15 10° NNW 04:31:17 20° NNW 04:31:17 20° NNW visible
30 Aug 12.5 03:57:06 10° N 03:59:12 24° N 03:59:12 24° N visible
31 Aug 12.9 03:25:23 10° NNE 03:27:06 21° NNE 03:27:06 21° NNE visible
31 Aug 13.0 05:07:09 10° NW 05:07:40 11° NW 05:07:40 11° NW visible
01 Sep 13.3 02:54:08 10° NNE 02:55:01 15° NE 02:55:01 15° NE visible
01 Sep 12.7 04:33:53 10° NNW 04:35:34 17° NNW 04:35:34 17° NNW visible
02 Sep 12.7 04:01:39 10° N 04:03:28 21° N 04:03:28 21° N visible
03 Sep 13.0 03:29:53 10° NNE 03:31:23 20° NNE 03:31:23 20° NNE visible
04 Sep 13.4 02:58:33 10° NNE 02:59:17 14° NNE 02:59:17 14° NNE visible
04 Sep 12.8 04:38:32 10° NNW 04:39:51 15° NNW 04:39:51 15° NNW visible
05 Sep 12.8 04:06:13 10° N 04:07:45 19° N 04:07:45 19° N visible
06 Sep 13.1 03:34:24 10° NNE 03:35:40 18° NNE 03:35:40 18° NNE visible
